Stations météo

Publicité
Rodez, France (7552): Température de l'air & dewpoint: 18.02.2019 00:00:00 - 24.02.2019 00:00:00 (CET)Rodez, France (7552): Température de l'air 5cm: 18.02.2019 00:00:00 - 24.02.2019 00:00:00 (CET)Rodez, France (7552): Vitesse du vent & gusts: 18.02.2019 00:00:00 - 24.02.2019 00:00:00 (CET)Rodez, France (7552): Direction du vent: 18.02.2019 00:00:00 - 24.02.2019 00:00:00 (CET)Rodez, France (7552): reduced air pressure: 18.02.2019 00:00:00 - 24.02.2019 00:00:00 (CET)Rodez, France (7552): visibility: 18.02.2019 00:00:00 - 24.02.2019 00:00:00 (CET)Rodez, France (7552): Ensoleillement: 18.02.2019 00:00:00 - 24.02.2019 00:00:00 (CET)Rodez, France (7552): Quantités de précipitations: 18.02.2019 00:00:00 - 24.02.2019 00:00:00 (CET)
Date & Time tt [°C] td [°C] tt 5cm [°C] ff [km/h] ff [knt] fx [km/h] fx [knt] dd ppp [hPa] vv [km] sd [min] rr [mm]
24.02.2019 00:00:00 - - - - - - - - - - - -
23.02.2019 23:00:00 6,7 3,1 1,6 9 5 13 7 SE 1029,7 20 0 0,0
23.02.2019 22:00:00 8,0 4,4 2,7 7 4 16 8 S 1029,2 27 0 0,0
23.02.2019 21:00:00 7,3 3,2 2,1 9 5 15 8 SSW 1029,0 38 0 0,0
23.02.2019 20:00:00 8,0 1,2 3,5 7 4 17 9 S 1028,6 60 0 0,0
23.02.2019 19:00:00 11,7 2,7 4,3 5 3 16 9 SSW 1027,1 60 7 0,0
23.02.2019 18:00:00 15,5 3,3 15,7 9 5 22 12 WSW 1026,2 60 60 0,0
23.02.2019 17:00:00 17,0 3,6 19,3 15 8 35 19 W 1025,5 39 60 0,0
23.02.2019 16:00:00 17,3 3,2 20,3 19 11 32 18 W 1025,3 37 60 0,0
23.02.2019 15:00:00 17,6 4,2 21,1 20 11 31 17 W 1025,3 41 60 0,0
23.02.2019 14:00:00 17,9 3,4 22,0 18 10 32 17 WNW 1025,5 49 60 0,0
23.02.2019 13:00:00 17,0 2,6 22,4 15 8 25 14 WNW 1026,0 55 60 0,0
23.02.2019 12:00:00 16,4 1,3 20,2 5 3 10 6 N 1026,3 49 60 0,0
23.02.2019 11:00:00 13,6 4,7 14,8 5 3 13 7 SSE 1027,2 25 60 0,0
23.02.2019 10:00:00 9,6 3,8 10,7 8 4 12 7 SE 1028,2 40 60 0,0
23.02.2019 09:00:00 5,8 2,6 2,3 5 3 13 7 SW 1029,7 26 46 0,0
23.02.2019 08:00:00 3,8 0,7 -0,4 7 4 18 10 ESE 1029,9 30 0 0,0
23.02.2019 07:00:00 4,1 0,1 -1,7 10 5 15 8 E 1030,0 26 0 0,0
23.02.2019 06:00:00 1,2 -0,1 -2,2 0 0 16 8 N 1030,8 23 0 0,0
23.02.2019 05:00:00 3,3 1,7 -1,4 8 4 12 6 E 1030,4 20 0 0,0
23.02.2019 04:00:00 3,8 1,7 -0,7 8 4 10 6 NE 1030,5 27 0 0,0
23.02.2019 03:00:00 4,1 2,0 -1,6 9 5 12 7 SE 1030,5 30 0 0,0
23.02.2019 02:00:00 3,1 1,0 -1,3 8 5 12 7 SSE 1031,0 31 0 0,0
23.02.2019 01:00:00 7,0 2,9 0,7 5 3 12 7 W 1029,8 45 0 0,0
23.02.2019 00:00:00 9,8 3,3 2,3 9 5 16 9 NNW 1029,0 60 0 0,0
22.02.2019 23:00:00 10,0 3,5 4,5 4 2 30 16 N 1029,0 58 0 0,0
22.02.2019 22:00:00 11,4 3,4 9,7 21 11 36 19 N 1028,7 60 0 0,0
22.02.2019 21:00:00 12,0 3,2 10,3 19 10 31 17 NNW 1029,0 60 0 0,0
22.02.2019 20:00:00 13,0 2,8 11,3 19 10 28 15 NNW 1029,1 60 0 0,0
22.02.2019 19:00:00 13,8 1,7 11,8 16 9 28 15 N 1028,9 60 5 0,0
22.02.2019 18:00:00 15,5 1,2 15,7 20 11 35 19 N 1028,4 35 60 0,0
22.02.2019 17:00:00 16,8 2,4 19,5 16 9 34 19 N 1028,2 30 60 0,0
22.02.2019 16:00:00 17,5 3,4 21,4 17 9 40 22 N 1028,0 20 60 0,0
22.02.2019 15:00:00 17,3 3,2 21,2 22 12 44 24 N 1028,1 29 60 0,0
22.02.2019 14:00:00 17,0 2,9 20,5 18 10 37 20 N 1028,7 18 60 0,0
22.02.2019 13:00:00 15,4 1,9 19,3 22 12 36 20 N 1029,7 34 60 0,0
22.02.2019 12:00:00 13,2 1,2 16,3 17 9 31 17 NNW 1031,0 36 60 0,0
22.02.2019 11:00:00 11,8 -0,7 13,7 19 10 29 15 NNW 1031,7 16 60 0,0
22.02.2019 10:00:00 7,8 0,7 4,9 3 2 8 4 W 1033,0 30 60 0,0
22.02.2019 09:00:00 0,7 -1,2 -6,1 3 2 10 5 S 1034,7 20 60 0,0
22.02.2019 08:00:00 -3,2 -5,4 -6,7 2 1 10 5 SSE 1035,3 19 0 0,0
22.02.2019 07:00:00 -2,1 -3,1 -6,7 4 2 6 4 SSW 1034,9 20 0 0,0
22.02.2019 06:00:00 -1,4 -3,1 -6,7 3 2 7 4 SSW 1034,7 19 0 0,0
22.02.2019 05:00:00 -1,5 -3,2 -6,7 3 1 7 4 S 1034,6 22 0 0,0
22.02.2019 04:00:00 -0,8 -3,0 -5,5 3 2 7 4 E 1034,3 19 0 0,0
22.02.2019 03:00:00 -0,7 -4,1 -5,0 6 3 9 5 S 1034,4 22 0 0,0
22.02.2019 02:00:00 -0,2 -3,1 -4,8 5 3 9 5 S 1034,6 20 0 0,0
22.02.2019 01:00:00 2,3 -1,9 -3,8 6 3 9 5 SE 1033,9 20 0 0,0
22.02.2019 00:00:00 1,2 -2,7 -3,6 2 1 5 3 SSW 1034,1 35 0 0,0
21.02.2019 23:00:00 2,8 -1,8 -2,8 4 2 8 4 S 1033,3 35 0 0,0
21.02.2019 22:00:00 3,9 -1,7 -1,3 4 2 9 5 SE 1032,5 38 0 0,0
21.02.2019 21:00:00 4,9 -2,0 0,6 3 1 8 5 WSW 1031,8 43 0 0,0
21.02.2019 20:00:00 10,3 -1,4 2,5 6 4 11 6 WNW 1030,0 42 0 0,0
21.02.2019 19:00:00 12,2 -2,8 5,1 11 6 12 7 WNW 1028,9 49 4 0,0
21.02.2019 18:00:00 13,8 -1,0 11,3 8 4 10 5 W 1028,1 47 60 0,0
21.02.2019 17:00:00 16,9 -3,3 20,0 4 2 14 7 W 1027,2 20 60 0,0
21.02.2019 16:00:00 17,4 -2,9 22,6 7 4 17 9 NW 1027,1 20 60 0,0
21.02.2019 15:00:00 17,3 -1,9 23,2 6 3 16 9 NNE 1027,0 20 60 0,0
21.02.2019 14:00:00 16,7 -1,4 22,5 8 4 17 9 WNW 1027,3 45 60 0,0
21.02.2019 13:00:00 16,3 1,2 21,3 5 3 11 6 N 1027,5 55 60 0,0
21.02.2019 12:00:00 14,3 1,9 16,9 5 3 10 5 E 1028,2 27 60 0,0
21.02.2019 11:00:00 11,1 2,4 11,4 5 3 11 6 ESE 1029,0 35 60 0,0
21.02.2019 10:00:00 6,8 2,1 5,1 5 3 8 4 E 1029,9 30 60 0,0
21.02.2019 09:00:00 1,0 0,3 -6,7 3 2 6 4 ESE 1031,2 18 57 0,0
21.02.2019 08:00:00 -2,5 -3,3 -7,3 3 2 7 4 E 1031,4 12 0 0,0
21.02.2019 07:00:00 -2,8 -3,8 -6,7 3 1 8 5 SSE 1031,0 13 0 0,0
21.02.2019 06:00:00 -1,7 -3,1 -6,4 4 2 10 5 SSE 1030,6 15 0 0,0
21.02.2019 05:00:00 0,1 -1,2 -6,1 8 5 11 6 E 1030,0 18 0 0,0
21.02.2019 04:00:00 -1,1 -2,1 -5,9 7 4 10 5 ESE 1030,3 16 0 0,0
21.02.2019 03:00:00 -0,8 -1,6 -5,0 5 3 9 5 ESE 1030,2 18 0 0,0
21.02.2019 02:00:00 0,8 -1,1 -4,5 5 3 8 4 E 1029,7 19 0 0,0
21.02.2019 01:00:00 0,7 -1,7 -4,2 4 2 9 5 SE 1029,5 27 0 0,0
21.02.2019 00:00:00 1,1 -1,8 -4,4 6 3 10 5 SSE 1028,9 26 0 0,0
20.02.2019 23:00:00 2,5 -0,8 -3,1 6 3 8 5 SE 1028,3 31 0 0,0
20.02.2019 22:00:00 2,4 -1,2 -2,8 3 2 9 5 SSE 1028,1 38 0 0,0
20.02.2019 21:00:00 3,7 -0,9 -2,1 3 2 6 3 S 1027,3 59 0 0,0
20.02.2019 20:00:00 7,3 0,9 0,6 0 0 9 5 N 1025,9 50 0 0,0
20.02.2019 19:00:00 8,5 0,5 2,0 5 3 10 5 WSW 1025,2 58 2 0,0
20.02.2019 18:00:00 13,8 0,4 14,1 5 3 11 6 SW 1023,2 60 60 0,0
20.02.2019 17:00:00 15,3 -0,5 18,5 6 3 11 6 S 1022,6 53 60 0,0
20.02.2019 16:00:00 15,9 -0,8 20,1 7 4 16 9 SSE 1022,3 46 60 0,0
20.02.2019 15:00:00 15,5 0,5 20,6 4 2 16 9 SW 1022,6 59 60 0,0
20.02.2019 14:00:00 15,1 1,6 19,7 6 3 20 11 S 1022,9 46 60 0,0
20.02.2019 13:00:00 13,2 3,5 15,9 6 4 21 11 ESE 1023,6 41 60 0,0
20.02.2019 12:00:00 10,5 3,5 13,5 13 7 21 12 ESE 1024,5 20 60 0,0
20.02.2019 11:00:00 8,5 2,7 9,5 10 6 18 10 ESE 1024,8 46 60 0,0
20.02.2019 10:00:00 5,9 2,5 4,3 10 6 14 8 E 1025,3 40 60 0,0
20.02.2019 09:00:00 2,1 0,8 -4,0 8 4 11 6 ESE 1025,6 13 53 0,0
20.02.2019 08:00:00 -1,0 -2,1 -5,4 11 6 12 7 SE 1025,9 10 0 0,0
20.02.2019 07:00:00 -1,3 -1,9 -5,1 5 3 9 5 SE 1025,5 10 0 0,0
20.02.2019 06:00:00 1,2 0,3 -3,9 9 5 11 6 ESE 1024,8 12 0 0,0
20.02.2019 05:00:00 0,4 -0,6 -3,1 8 4 11 6 E 1025,0 10 0 0,0
20.02.2019 04:00:00 2,4 0,8 -2,0 9 5 14 7 E 1024,6 13 0 0,0
20.02.2019 03:00:00 1,9 0,3 -3,9 9 5 11 6 SE 1024,9 18 0 0,0
20.02.2019 02:00:00 1,0 -0,2 -3,6 6 3 11 6 ESE 1025,2 23 0 0,0
20.02.2019 01:00:00 1,2 -0,3 -3,7 7 4 10 5 SE 1024,8 23 0 0,0
20.02.2019 00:00:00 3,2 0,8 -2,9 8 4 15 8 SSE 1024,2 27 0 0,0
19.02.2019 23:00:00 1,8 0,5 -3,5 9 5 12 6 SSE 1024,3 17 0 0,0
19.02.2019 22:00:00 1,7 -0,4 -2,6 6 3 9 5 SSE 1024,4 23 0 0,0
19.02.2019 21:00:00 3,7 1,1 -1,3 2 1 4 2 S 1023,5 20 0 0,0
19.02.2019 20:00:00 5,5 1,8 -0,7 4 2 8 4 S 1022,9 35 0 0,0
19.02.2019 19:00:00 6,4 2,1 0,9 7 4 14 7 S 1022,1 40 1 0,0
19.02.2019 18:00:00 11,0 2,3 11,6 6 3 12 7 SSW 1020,3 58 60 0,0
19.02.2019 17:00:00 13,2 0,9 17,3 3 2 11 6 NNE 1020,1 60 60 0,0
19.02.2019 16:00:00 13,8 2,4 18,9 6 3 14 7 ESE 1020,1 46 60 0,0
19.02.2019 15:00:00 13,0 3,4 18,4 8 5 33 18 E 1020,6 54 60 0,0
19.02.2019 14:00:00 12,4 2,5 17,9 8 4 18 10 NW 1021,3 37 60 0,0
19.02.2019 13:00:00 11,5 2,2 17,1 4 2 16 9 SE 1022,0 51 60 0,0
19.02.2019 12:00:00 11,0 2,6 15,1 3 1 15 8 SW 1022,9 36 60 0,0
19.02.2019 11:00:00 9,2 3,4 11,0 8 5 19 10 ESE 1023,3 20 60 0,0
19.02.2019 10:00:00 6,8 3,8 4,1 8 4 11 6 ESE 1023,7 20 60 0,0
19.02.2019 09:00:00 1,0 1,0 -5,5 6 4 9 5 SE 1025,0 4,7 44 0,0
19.02.2019 08:00:00 -2,8 -3,6 -5,8 3 2 8 4 ESE 1025,4 0,2 0 0,0
19.02.2019 07:00:00 0,6 0,5 -4,5 3 1 8 5 N 1024,1 0,4 0 0,0
19.02.2019 06:00:00 1,3 -0,3 -1,5 6 4 12 7 ENE 1023,6 0,6 0 0,0
19.02.2019 05:00:00 3,4 2,2 0,3 11 6 14 7 ENE 1022,8 10 0 0,0
19.02.2019 04:00:00 3,6 1,3 1,6 8 5 16 9 E 1022,7 14 0 0,0
19.02.2019 03:00:00 5,3 3,0 2,8 12 7 21 11 E 1022,4 24 0 0,0
19.02.2019 02:00:00 5,1 2,6 3,7 14 8 18 10 E 1022,5 27 0 0,0
19.02.2019 01:00:00 5,1 2,6 3,6 15 8 22 12 E 1022,6 31 0 0,0
19.02.2019 00:00:00 5,0 2,5 3,3 13 7 18 10 E 1022,7 30 0 0,0
18.02.2019 23:00:00 5,4 2,4 3,5 11 6 23 12 E 1022,7 33 0 0,0
18.02.2019 22:00:00 6,1 2,5 4,5 16 9 26 14 E 1022,2 37 0 0,0
18.02.2019 21:00:00 6,6 2,9 5,2 13 7 22 12 E 1022,1 33 0 0,0
18.02.2019 20:00:00 7,3 3,0 5,6 16 8 28 15 ESE 1021,7 43 0 0,0
18.02.2019 19:00:00 8,1 1,9 7,0 20 11 41 22 ESE 1021,2 60 0 0,0
18.02.2019 18:00:00 9,4 2,5 9,4 18 10 38 20 SE 1020,3 52 54 0,0
18.02.2019 17:00:00 11,1 3,4 12,3 24 13 35 19 ESE 1020,1 30 60 0,0
18.02.2019 16:00:00 11,8 3,5 12,2 25 14 37 20 SE 1020,0 25 53 0,0
18.02.2019 15:00:00 12,5 3,4 16,0 25 14 41 22 SE 1020,0 24 60 0,0
18.02.2019 14:00:00 12,3 4,0 16,0 27 15 41 22 SE 1020,6 26 60 0,0
18.02.2019 13:00:00 12,6 4,3 15,4 26 14 41 22 SE 1021,0 28 60 0,0
18.02.2019 12:00:00 11,4 3,9 13,5 27 15 50 27 SE 1021,5 32 60 0,0
18.02.2019 11:00:00 10,2 3,2 11,1 30 16 51 27 SE 1021,7 38 60 0,0
18.02.2019 10:00:00 9,1 3,7 8,6 29 16 50 27 SE 1022,0 49 60 0,0
18.02.2019 09:00:00 7,7 3,4 5,4 26 14 47 25 ESE 1022,2 56 37 0,0
18.02.2019 08:00:00 6,5 2,8 5,0 26 14 41 22 ESE 1021,9 58 0 0,0
18.02.2019 07:00:00 6,2 2,5 5,1 23 12 44 24 ESE 1022,0 59 0 0,0
18.02.2019 06:00:00 6,4 2,8 5,4 27 15 45 25 ESE 1021,6 60 0 0,0
18.02.2019 05:00:00 6,5 2,4 5,4 28 15 42 23 ESE 1021,7 60 0 0,0
18.02.2019 04:00:00 6,5 2,0 4,8 24 13 47 26 E 1022,2 60 0 0,0
18.02.2019 03:00:00 5,9 1,4 4,5 22 12 48 26 ESE 1023,0 60 0 0,0
18.02.2019 02:00:00 5,8 1,3 4,7 26 14 45 24 ESE 1023,2 60 0 0,0
18.02.2019 01:00:00 6,2 1,7 5,0 29 16 43 23 ESE 1022,9 60 0 0,0
18.02.2019 00:00:00 6,6 2,1 5,5 29 16 51 27 ESE 1022,8 60 0 0,0

tt = Température de l'air
td = dewpoint
tt 5cm = Température de l'air 5cm
ff = Vitesse du vent
fx = gusts
dd = Direction du vent
ppp = reduced air pressure
vv = visibility
sd = Ensoleillement
rr = Quantités de précipitations

stations d'obs. à proximité